When you browse on this site, cookies collect data to enhance your experience and personalize the content and advertising you see.
Visit our Privacy Policy to learn more. By continuing to use the site, you agree to this use of cookies and data.
  • în România
  • Lista ţărilor
  • Pe 7 zile
  • Temperatura apei
  • Hartă satelitară
  • Meteo pe hartă
  • Widget-uri
  • user-avatar
    Intrare

    Meteo pe oră la Arroyo

    Astăzi, 18 Februarie, Luni

    Timp Temperatura Precipitaţii Vânt Presiune Umiditate
    00:00 +8°C° 0 mm 2 m/s 728 mmHg 84%
    01:00 +8°C° 0 mm 2 m/s 728 mmHg 86%
    02:00 +8°C° 0 mm 2 m/s 728 mmHg 87%
    03:00 +8°C° 0 mm 3 m/s 727 mmHg 88%
    04:00 +8°C° 0 mm 3 m/s 727 mmHg 87%
    05:00 +8°C° 0 mm 3 m/s 727 mmHg 86%
    06:00 +7°C° 0 mm 3 m/s 727 mmHg 83%
    07:00 +8°C° 0.1 mm 3 m/s 727 mmHg 79%
    08:00 +8°C° 0.1 mm 3 m/s 727 mmHg 76%
    09:00 +9°C° 0.1 mm 3 m/s 727 mmHg 72%
    10:00 +11°C° 0 mm 3 m/s 728 mmHg 65%
    11:00 +12°C° 0 mm 3 m/s 728 mmHg 59%
    12:00 +14°C° 0 mm 3 m/s 728 mmHg 51%
    13:00 +14°C° 0 mm 3 m/s 728 mmHg 51%
    14:00 +16°C° 0 mm 2 m/s 728 mmHg 50%
    15:00 +16°C° 0 mm 2 m/s 727 mmHg 50%
    16:00 +15°C° 0 mm 2 m/s 728 mmHg 55%
    17:00 +14°C° 0 mm 1 m/s 728 mmHg 60%
    18:00 +12°C° 0 mm 1 m/s 728 mmHg 66%
    19:00 +12°C° 0 mm 1 m/s 728 mmHg 66%
    20:00 +11°C° 0 mm 1 m/s 728 mmHg 66%
    21:00 +10°C° 0 mm 1 m/s 729 mmHg 66%
    22:00 +10°C° 0 mm 1 m/s 729 mmHg 65%
    23:00 +10°C° 0 mm 1 m/s 729 mmHg 63%

    Mâine, 19 Februarie, Marţi

    Timp Temperatura Precipitaţii Vânt Presiune Umiditate
    00:00 +9°C° 0 mm 1 m/s 730 mmHg 62%
    01:00 +9°C° 0 mm 1 m/s 730 mmHg 64%
    02:00 +8°C° 0 mm 1 m/s 730 mmHg 67%
    03:00 +7°C° 0 mm 1 m/s 730 mmHg 69%
    04:00 +7°C° 0 mm 1 m/s 729 mmHg 70%
    05:00 +7°C° 0 mm 1 m/s 729 mmHg 72%
    06:00 +6°C° 0 mm 1 m/s 729 mmHg 73%
    07:00 +8°C° 0 mm 1 m/s 730 mmHg 70%
    08:00 +9°C° 0 mm 1 m/s 730 mmHg 66%
    09:00 +9°C° 0 mm 0 m/s 730 mmHg 63%
    10:00 +12°C° 0 mm 1 m/s 731 mmHg 57%
    11:00 +14°C° 0 mm 1 m/s 731 mmHg 51%
    12:00 +16°C° 0 mm 1 m/s 731 mmHg 46%
    13:00 +18°C° 0 mm 1 m/s 730 mmHg 46%
    14:00 +18°C° 0 mm 1 m/s 730 mmHg 46%
    15:00 +19°C° 0 mm 1 m/s 730 mmHg 46%
    16:00 +16°C° 0 mm 1 m/s 730 mmHg 53%
    17:00 +14°C° 0 mm 1 m/s 730 mmHg 59%
    18:00 +12°C° 0 mm 1 m/s 730 mmHg 66%
    19:00 +11°C° 0 mm 1 m/s 730 mmHg 71%
    20:00 +10°C° 0 mm 1 m/s 730 mmHg 76%
    21:00 +8°C° 0 mm 0 m/s 730 mmHg 80%
    22:00 +8°C° 0 mm 0 m/s 730 mmHg 81%
    23:00 +7°C° 0 mm 0 m/s 731 mmHg 82%

    Poimâine, 20 Februarie, Miercuri

    Timp Temperatura Precipitaţii Vânt Presiune Umiditate
    00:00 +7°C° 0 mm 0 m/s 731 mmHg 84%
    01:00 +7°C° 0 mm 0 m/s 731 mmHg 84%
    02:00 +6°C° 0 mm 0 m/s 731 mmHg 85%
    03:00 +7°C° 0 mm 1 m/s 731 mmHg 85%
    04:00 +7°C° 0 mm 1 m/s 731 mmHg 86%
    05:00 +6°C° 0 mm 1 m/s 731 mmHg 86%
    06:00 +6°C° 0 mm 1 m/s 731 mmHg 87%
    07:00 +7°C° 0 mm 1 m/s 731 mmHg 82%
    08:00 +9°C° 0 mm 1 m/s 732 mmHg 77%
    09:00 +10°C° 0 mm 1 m/s 732 mmHg 72%
    10:00 +12°C° 0 mm 1 m/s 732 mmHg 66%
    11:00 +14°C° 0 mm 1 m/s 732 mmHg 60%
    12:00 +16°C° 0 mm 1 m/s 733 mmHg 54%
    13:00 +18°C° 0 mm 1 m/s 732 mmHg 53%
    14:00 +18°C° 0 mm 1 m/s 732 mmHg 51%
    15:00 +19°C° 0 mm 1 m/s 732 mmHg 50%
    16:00 +16°C° 0 mm 1 m/s 732 mmHg 56%
    17:00 +14°C° 0 mm 0 m/s 732 mmHg 62%
    18:00 +12°C° 0 mm 0 m/s 732 mmHg 68%
    19:00 +11°C° 0 mm 0 m/s 732 mmHg 72%
    20:00 +10°C° 0 mm 0 m/s 732 mmHg 76%
    21:00 +9°C° 0 mm 0 m/s 733 mmHg 79%
    22:00 +9°C° 0 mm 1 m/s 733 mmHg 80%
    23:00 +9°C° 0 mm 1 m/s 733 mmHg 82%

    21 Februarie, Joi

    Timp Temperatura Precipitaţii Vânt Presiune Umiditate
    00:00 +9°C° 0 mm 1 m/s 733 mmHg 83%
    01:00 +8°C° 0 mm 1 m/s 733 mmHg 83%
    02:00 +8°C° 0 mm 1 m/s 733 mmHg 84%
    03:00 +8°C° 0 mm 1 m/s 733 mmHg 84%
    04:00 +7°C° 0 mm 1 m/s 733 mmHg 84%
    05:00 +7°C° 0 mm 1 m/s 733 mmHg 85%
    06:00 +7°C° 0 mm 1 m/s 733 mmHg 85%
    07:00 +7°C° 0 mm 2 m/s 734 mmHg 80%
    08:00 +8°C° 0 mm 2 m/s 734 mmHg 76%
    09:00 +10°C° 0 mm 2 m/s 735 mmHg 71%
    10:00 +12°C° 0 mm 3 m/s 735 mmHg 63%
    11:00 +14°C° 0 mm 3 m/s 735 mmHg 56%
    12:00 +17°C° 0 mm 3 m/s 736 mmHg 49%
    13:00 +18°C° 0 mm 3 m/s 735 mmHg 47%
    14:00 +18°C° 0 mm 3 m/s 735 mmHg 45%
    15:00 +19°C° 0 mm 3 m/s 735 mmHg 43%
    16:00 +17°C° 0 mm 3 m/s 735 mmHg 50%
    17:00 +16°C° 0 mm 2 m/s 735 mmHg 57%
    18:00 +14°C° 0 mm 2 m/s 735 mmHg 63%
    19:00 +13°C° 0 mm 2 m/s 735 mmHg 65%
    20:00 +10°C° 0 mm 2 m/s 736 mmHg 66%
    21:00 +9°C° 0 mm 2 m/s 737 mmHg 68%
    22:00 +9°C° 0 mm 2 m/s 737 mmHg 69%
    23:00 +8°C° 0 mm 2 m/s 737 mmHg 70%

    22 Februarie, Vineri

    Timp Temperatura Precipitaţii Vânt Presiune Umiditate
    00:00 +8°C° 0 mm 2 m/s 737 mmHg 70%
    01:00 +7°C° 0 mm 2 m/s 737 mmHg 72%
    02:00 +7°C° 0 mm 2 m/s 737 mmHg 73%
    03:00 +7°C° 0 mm 1 m/s 737 mmHg 75%
    04:00 +6°C° 0 mm 2 m/s 737 mmHg 75%
    05:00 +6°C° 0 mm 2 m/s 737 mmHg 75%
    06:00 +5°C° 0 mm 2 m/s 737 mmHg 76%
    07:00 +7°C° 0 mm 2 m/s 737 mmHg 70%
    08:00 +8°C° 0 mm 2 m/s 738 mmHg 64%
    09:00 +10°C° 0 mm 3 m/s 738 mmHg 58%
    10:00 +12°C° 0 mm 3 m/s 738 mmHg 53%
    11:00 +14°C° 0 mm 3 m/s 738 mmHg 47%
    12:00 +18°C° 0 mm 3 m/s 738 mmHg 41%
    13:00 +18°C° 0 mm 3 m/s 738 mmHg 40%
    14:00 +19°C° 0 mm 3 m/s 737 mmHg 39%
    15:00 +20°C° 0 mm 3 m/s 737 mmHg 38%
    16:00 +18°C° 0 mm 3 m/s 737 mmHg 45%
    17:00 +16°C° 0 mm 2 m/s 736 mmHg 51%
    18:00 +14°C° 0 mm 2 m/s 736 mmHg 58%
    19:00 +13°C° 0 mm 2 m/s 737 mmHg 59%
    20:00 +10°C° 0 mm 2 m/s 737 mmHg 59%
    21:00 +9°C° 0 mm 2 m/s 737 mmHg 60%
    22:00 +10°C° 0 mm 1 m/s 737 mmHg 60%
    23:00 +9°C° 0 mm 1 m/s 737 mmHg 60%

    23 Februarie, Sâmbătă

    Timp Temperatura Precipitaţii Vânt Presiune Umiditate
    00:00 +8°C° 0 mm 1 m/s 737 mmHg 60%
    01:00 +8°C° 0 mm 1 m/s 737 mmHg 61%
    02:00 +7°C° 0 mm 1 m/s 737 mmHg 61%
    03:00 +7°C° 0 mm 1 m/s 737 mmHg 61%
    04:00 +6°C° 0 mm 1 m/s 737 mmHg 60%
    05:00 +6°C° 0 mm 1 m/s 737 mmHg 59%
    06:00 +6°C° 0 mm 1 m/s 737 mmHg 57%
    07:00 +7°C° 0 mm 1 m/s 738 mmHg 55%
    08:00 +9°C° 0 mm 1 m/s 738 mmHg 52%
    09:00 +10°C° 0 mm 1 m/s 739 mmHg 49%
    10:00 +13°C° 0 mm 1 m/s 739 mmHg 45%
    11:00 +15°C° 0 mm 2 m/s 739 mmHg 41%
    12:00 +18°C° 0 mm 2 m/s 739 mmHg 37%
    13:00 +19°C° 0 mm 2 m/s 739 mmHg 36%
    14:00 +20°C° 0 mm 1 m/s 738 mmHg 34%
    15:00 +21°C° 0 mm 1 m/s 738 mmHg 33%
    16:00 +19°C° 0 mm 1 m/s 738 mmHg 38%
    17:00 +15°C° 0 mm 0 m/s 738 mmHg 44%
    18:00 +13°C° 0 mm 0 m/s 738 mmHg 50%
    19:00 +12°C° 0 mm 0 m/s 738 mmHg 51%
    20:00 +11°C° 0 mm 0 m/s 739 mmHg 53%
    21:00 +11°C° 0 mm 1 m/s 739 mmHg 55%
    22:00 +10°C° 0 mm 1 m/s 739 mmHg 56%
    23:00 +9°C° 0 mm 1 m/s 739 mmHg 58%
    Arată mai mult